Weather in Madaun

Russia / Magadan District     60°36′22″N   150°41′41″E
temp.,
°C
wind,
m/s
gust,
m/s
humid.,
%
clouds,
%
prec.,
mm/h
press.,
hPa
HPBL,
m
17 april, sat
sat1723:00−14s339898 0.4 101432
02:00−16s2299100 0.2 101614
05:00−18sse11100100 0.3 10179
08:00−14ssw129797 0.1 101649
11:00−9ssw338699 0.1 1015468
14:00−8sw3379100 0.0 1015674
17:00−7ssw448493 0.1 1015518
20:00−12s57100100 0.1 101878
18 april, sun
sun1823:00−12s579999 0.1 1019152
02:00−12s5798100 0.1 1019126
05:00−12s5698100 0.2 101981
08:00−9s5797100 0.1 1018194
11:00−5s5691100 0.1 1016430
14:00−4s569396 0.2 1015435
17:00−3ssw4592100 0.4 1016374
20:00−6s3499100 0.1 101850
19 april, mon
mon1923:00−6s2398100 0.1 102088
02:00−6ssw1197100 0.1 102114
05:00−5ssw119595 0.1 102210
08:00−3sse118792 0.0 1023307
11:00−2s129087 0.1 1023414
14:00−1ese119497 0.0 1022415
17:000ene2291100 0.0 1022311
20:00−2e2293100 0.0 102316
20 april, tue
tue2023:00−4e2294100 0.0 102217
02:00−3ne2293100 0.7 102132
05:00−4ene3291100 0.7 102029
08:00−2ene2285100 0.0 101990
11:00+1e2391100 0.0 1018119
14:000ese3687100 0.0 1019490
17:000ese388099 0.1 1021725
20:00−3e2397100 1.4 102490
21 april, wed
wed2123:00−4ese3396100 1.9 102671
02:00−5e2296100 0.5 102614
05:00−5e229590 0.7 102624
08:00−3e2294100 0.1 1027126
11:00−2ese2297100 0.8 1027356
14:00−1sse2399100 1.4 1028360
17:00−1sse339883 2.1 1029332
20:00−4s229895 0.3 103222